Location: Gold Fund Mine
(38.3819°N, 119.0996°W)
Time: 00:00:18
(UTC+00:00)

Cosmos 2360 Rocket - Pass Details

Date: 18 September 2020
Orbit: 835 x 844 km, 71.0° (Epoch: 20 October)

Event Time Altitude Azimuth Distance (km) Brightness Sun altitude
Rises 12:45:47 0° 190° (S) 3,384 5.1 -11.6°
Reaches altitude 10° 12:48:14 10° 186° (S) 2,454 4.4 -11.1°
Maximum altitude 12:53:46 59° 108° (ESE) 968 2.9 -10.1°
Drops below altitude 10° 12:59:19 10° 30° (NNE) 2,468 5.2 -9.0°
Sets 13:01:48 0° 27° (NNE) 3,406 5.9 -8.5°
